IRIDIUM 106 1 41917U 17003A 26094.14085606 .00000234 00000+0 76463-4 0 9992 2 41917 86.3934 119.5224 0002595 98.6497 261.4993 14.34217441482598 IRIDIUM 103 1 41918U 17003B 26094.19793778 .00000158 00000+0 49364-4 0 9999 2 41918 86.3933 119.3986 0002001 96.0135 264.1289 14.34219719482626 IRIDIUM 109 1 41919U 17003C 26094.13451652 .00000037 00000+0 62578-5 0 9995 2 41919 86.3935 119.4834 0002219 93.7290 266.4160 14.34217986482581 IRIDIUM 102 1 41920U 17003D 26094.10280231 .00000049 00000+0 10570-4 0 9994 2 41920 86.3932 119.4217 0002324 91.5298 268.6164 14.34217054482669 IRIDIUM 105 1 41921U 17003E 26094.06535801 .00000196 00000+0 62557-4 0 9991 2 41921 86.3914 87.8680 0002199 89.4977 270.6471 14.34399694484513 IRIDIUM 104 1 41922U 17003F 26094.04571953 -.00000043 00000+0 -22391-4 0 9993 2 41922 86.3937 119.4869 0001888 89.6703 270.4709 14.34216525482648 IRIDIUM 114 1 41923U 17003G 26094.12183138 -.00000016 00000+0 -12757-4 0 9992 2 41923 86.3939 119.4386 0001952 93.8193 266.3226 14.34217317482634 IRIDIUM 108 1 41924U 17003H 26094.21989004 .00000164 00000+0 51334-4 0 9995 2 41924 86.3910 87.6942 0002362 87.1790 272.9676 14.34219566484501 IRIDIUM 112 1 41925U 17003J 26094.10914627 .00000017 00000+0 -87575-6 0 9999 2 41925 86.3931 119.2896 0002164 90.7139 269.4304 14.34217689482659 IRIDIUM 111 1 41926U 17003K 26094.16622941 .00000010 00000+0 -33955-5 0 9996 2 41926 86.3936 119.3345 0002083 94.6860 265.4574 14.34217632482641 IRIDIUM 113 1 42803U 17039A 26094.21596300 -.00000136 00000+0 -55652-4 0 9992 2 42803 86.4020 353.0967 0001793 79.4417 280.6980 14.34219536460588 IRIDIUM 123 1 42804U 17039B 26094.25744075 .00000332 00000+0 11156-3 0 9997 2 42804 86.4014 24.5231 0002162 90.1805 269.9638 14.34219005459352 IRIDIUM 120 1 42805U 17039C 26094.20961984 .00000333 00000+0 11188-3 0 9999 2 42805 86.4013 352.8918 0002306 85.7684 274.3775 14.34219049460572 IRIDIUM 115 1 42806U 17039D 26094.21189701 .00000609 00000+0 17498-3 0 9996 2 42806 86.4551 353.0092 0002348 93.3341 266.8128 14.43279598463595 IRIDIUM 118 1 42807U 17039E 26094.21938663 -.00000052 00000+0 -25559-4 0 9998 2 42807 86.4008 24.5374 0002012 83.5035 276.6390 14.34216996459346 IRIDIUM 117 1 42808U 17039F 26094.23841268 .00000336 00000+0 11306-3 0 9992 2 42808 86.4014 24.4878 0002157 89.0675 271.0768 14.34219113459378 IRIDIUM 126 1 42809U 17039G 26094.19401556 -.00000021 00000+0 -14560-4 0 9999 2 42809 86.4011 24.5565 0001916 86.6640 273.4775 14.34217349459347 IRIDIUM 124 1 42810U 17039H 26094.14591893 .00000568 00000+0 16281-3 0 9995 2 42810 86.4489 321.3394 0002140 88.5604 271.5842 14.43295100464438 IRIDIUM 128 1 42811U 17039J 26094.25452172 .00000380 00000+0 12869-3 0 9994 2 42811 86.3956 56.0472 0002417 89.5257 270.6216 14.34219082459386 IRIDIUM 121 1 42812U 17039K 26093.86419867 .00000030 00000+0 38101-5 0 9996 2 42812 86.4012 24.7211 0002220 84.4251 275.7198 14.34216491459177 IRIDIUM 133 1 42955U 17061A 26094.28623469 .00000224 00000+0 72849-4 0 9992 2 42955 86.3957 56.1499 0002241 88.0691 272.0762 14.34218652444183 IRIDIUM 100 1 42956U 17061B 26094.27989237 .00000002 00000+0 -62758-5 0 9994 2 42956 86.3950 56.0731 0002084 88.8807 271.2627 14.34217458444181 IRIDIUM 122 1 42957U 17061C 26094.24817854 .00000206 00000+0 66631-4 0 9995 2 42957 86.3958 56.0861 0002168 88.7283 271.4162 14.34217475444189 IRIDIUM 129 1 42958U 17061D 26093.92470613 .00000351 00000+0 11834-3 0 9993 2 42958 86.3957 56.2877 0002083 79.1801 280.9630 14.34218621444150 IRIDIUM 119 1 42959U 17061E 26093.96276261 -.00000004 00000+0 -86497-5 0 9997 2 42959 86.3954 56.2676 0001924 86.3542 273.7874 14.34217331444179 IRIDIUM 107 1 42960U 17061F 26094.26087445 .00000146 00000+0 45229-4 0 9999 2 42960 86.3957 56.1631 0002180 95.0266 265.1178 14.34213329444220 IRIDIUM 132 1 42961U 17061G 26094.26720902 -.00000097 00000+0 -41781-4 0 9998 2 42961 86.3953 56.1410 0002130 88.8315 271.3125 14.34216485444229 IRIDIUM 136 1 42962U 17061H 26093.95007674 .00000384 00000+0 12999-3 0 9993 2 42962 86.3956 56.2797 0002120 88.7154 271.4285 14.34219152444199 IRIDIUM 139 1 42963U 17061J 26093.95641193 .00000413 00000+0 14046-3 0 9992 2 42963 86.3958 56.3377 0002261 89.5707 270.5748 14.34221974444207 IRIDIUM 125 1 42964U 17061K 26093.94373437 -.00000085 00000+0 -37550-4 0 9998 2 42964 86.3958 56.4034 0001613 96.6748 263.4632 14.34216667444210 IRIDIUM 135 1 43070U 17083A 26094.19693456 .00000233 00000+0 76027-4 0 9990 2 43070 86.4017 352.9463 0002213 85.3276 274.8173 14.34218708433542 IRIDIUM 138 1 43071U 17083B 26094.22230392 .00000219 00000+0 71013-4 0 9995 2 43071 86.4033 352.6204 0001807 81.9868 278.1533 14.34218616433532 IRIDIUM 116 1 43072U 17083C 26094.26036102 .00000427 00000+0 14535-3 0 9999 2 43072 86.4016 352.9069 0002407 87.5423 272.6049 14.34218591433579 IRIDIUM 130 1 43073U 17083D 26094.22864778 .00000174 00000+0 55038-4 0 9997 2 43073 86.4025 353.1880 0002269 91.7756 268.3699 14.34218248433512 IRIDIUM 151 1 43074U 17083E 26094.27304374 .00000350 00000+0 11799-3 0 9995 2 43074 86.4018 352.9578 0002242 84.4543 275.6908 14.34217354433544 IRIDIUM 134 1 43075U 17083F 26094.24133269 .00000391 00000+0 13239-3 0 9992 2 43075 86.4020 352.9779 0002204 88.7113 271.4335 14.34218813433504 IRIDIUM 137 1 43076U 17083G 26094.25402114 .00000433 00000+0 14768-3 0 9997 2 43076 86.4023 353.0639 0002602 80.7767 279.3723 14.34221102433574 IRIDIUM 141 1 43077U 17083H 26094.24767826 .00000422 00000+0 14369-3 0 9996 2 43077 86.4017 352.9014 0002085 83.7789 276.3645 14.34219318433571 IRIDIUM 153 1 43078U 17083J 26094.13008449 .00000325 00000+0 10884-3 0 9994 2 43078 86.3967 321.4545 0001870 87.6598 272.4812 14.34218821434669 IRIDIUM 131 1 43079U 17083K 26094.23498993 .00000356 00000+0 12007-3 0 9996 2 43079 86.4025 353.0876 0002187 82.3740 277.7705 14.34218899433503 IRIDIUM 144 1 43249U 18030A 26094.13642783 .00000163 00000+0 51289-4 0 9997 2 43249 86.3965 321.3827 0002276 88.8855 271.2602 14.34217541419529 IRIDIUM 149 1 43250U 18030B 26094.14277037 .00000033 00000+0 46018-5 0 9997 2 43250 86.3962 321.3477 0001906 84.9372 275.2041 14.34217106419549 IRIDIUM 157 1 43251U 18030C 26094.16179773 .00000239 00000+0 78244-4 0 9991 2 43251 86.3966 321.3917 0002115 86.6030 273.5408 14.34218648419524 IRIDIUM 140 1 43252U 18030D 26094.11105752 -.00000055 00000+0 -26535-4 0 9997 2 43252 86.3964 321.4251 0002022 88.1479 271.9948 14.34217954419571 IRIDIUM 145 1 43253U 18030E 26094.16814186 .00000153 00000+0 47617-4 0 9992 2 43253 86.3965 321.3742 0002491 90.9408 269.2073 14.34218147419518 IRIDIUM 146 1 43254U 18030F 26094.14911328 .00000288 00000+0 95828-4 0 9993 2 43254 86.3964 321.3946 0002260 87.3325 272.8130 14.34218693419527 IRIDIUM 148 1 43255U 18030G 26094.11739438 .00000359 00000+0 12096-3 0 9995 2 43255 86.3967 321.4499 0002136 85.3937 274.7502 14.34221247419550 IRIDIUM 142 1 43256U 18030H 26094.15545592 .00000210 00000+0 68073-4 0 9999 2 43256 86.3962 321.3257 0002387 90.0157 270.1312 14.34218528419526 IRIDIUM 150 1 43257U 18030J 26094.12374274 .00000230 00000+0 74950-4 0 9997 2 43257 86.3965 321.4528 0002169 88.4111 271.7334 14.34218462419541 IRIDIUM 143 1 43258U 18030K 26094.17448192 .00000367 00000+0 12390-3 0 9994 2 43258 86.3970 321.5209 0002274 88.1787 271.9669 14.34216869419483 IRIDIUM 161 1 43478U 18047C 26094.12365398 .00000213 00000+0 57471-4 0 9997 2 43478 86.4454 119.4495 0002169 84.9077 275.2372 14.43277878414452 IRIDIUM 152 1 43479U 18047D 26094.14720099 .00000002 00000+0 -63762-5 0 9991 2 43479 86.3934 119.3000 0002025 91.2739 268.8689 14.34217616411879 IRIDIUM 147 1 43480U 18047E 26094.15354458 .00000085 00000+0 23306-4 0 9995 2 43480 86.3932 119.3015 0002372 92.9054 267.2413 14.34218087411879 IRIDIUM 110 1 43481U 18047F 26094.15988624 .00000034 00000+0 50532-5 0 9990 2 43481 86.3934 119.3886 0001993 85.2743 274.8681 14.34217812411861 IRIDIUM 162 1 43482U 18047G 26094.11734064 .00000233 00000+0 63310-4 0 9992 2 43482 86.4454 119.3440 0002237 94.9671 265.1785 14.43276923414448 IRIDIUM 160 1 43569U 18061A 26093.96618534 .00000038 00000+0 64373-5 0 9993 2 43569 86.3913 87.8349 0002226 86.5617 273.5834 14.34217811402733 IRIDIUM 166 1 43570U 18061B 26094.06132500 .00000012 00000+0 -28733-5 0 9994 2 43570 86.3911 87.7464 0002354 90.2623 269.8843 14.34217674402770 IRIDIUM 158 1 43571U 18061C 26094.23891679 -.00000037 00000+0 -20140-4 0 9994 2 43571 86.3910 87.6822 0001991 92.1247 268.0177 14.34217174402761 IRIDIUM 165 1 43572U 18061D 26094.05498149 -.00000061 00000+0 -29024-4 0 9997 2 43572 86.3915 87.8043 0002272 89.8970 270.2486 14.34217029402760 IRIDIUM 155 1 43573U 18061E 26094.22623136 -.00000015 00000+0 -12454-4 0 9991 2 43573 86.3909 87.6052 0002136 93.7448 266.3992 14.34217419402755 IRIDIUM 154 1 43574U 18061F 26094.06766725 .00000005 00000+0 -53903-5 0 9999 2 43574 86.3912 87.8015 0002310 89.7259 270.4201 14.34217575402785 IRIDIUM 163 1 43575U 18061G 26094.04863860 .00000012 00000+0 -28085-5 0 9997 2 43575 86.3910 87.7269 0002134 90.3247 269.8194 14.34217592402752 IRIDIUM 156 1 43576U 18061H 26094.02326538 .00000124 00000+0 37223-4 0 9998 2 43576 86.3907 87.7446 0002260 94.3742 265.7712 14.34219200402748 IRIDIUM 164 1 43577U 18061J 26094.21354587 .00000034 00000+0 51858-5 0 9996 2 43577 86.3908 87.7041 0002394 87.1409 273.0061 14.34218007402810 IRIDIUM 159 1 43578U 18061K 26094.04229591 .00000016 00000+0 -14556-5 0 9999 2 43578 86.3910 87.7145 0002034 86.1149 274.0280 14.34217594402757 IRIDIUM 180 1 43922U 19002A 26094.25109772 .00000407 00000+0 13827-3 0 9990 2 43922 86.4014 24.4867 0002153 82.8612 277.2828 14.34219493378390 IRIDIUM 176 1 43923U 19002B 26094.27808975 .00001942 00000+0 30398-3 0 9991 2 43923 86.6136 24.4292 0002643 85.2127 274.9392 14.72252667388373 IRIDIUM 168 1 43924U 19002C 26094.24475288 .00000408 00000+0 13875-3 0 9993 2 43924 86.4018 24.5646 0002131 85.4609 274.6830 14.34220122378376 IRIDIUM 173 1 43925U 19002D 26094.23207010 .00000254 00000+0 83730-4 0 9996 2 43925 86.4015 24.4617 0002110 87.0638 273.0799 14.34218593378352 IRIDIUM 169 1 43926U 19002E 26093.89712425 .00000658 00000+0 20853-3 0 9993 2 43926 86.4211 56.2390 0002080 104.7732 255.3697 14.38609236379544 IRIDIUM 172 1 43927U 19002F 26094.22572804 .00000123 00000+0 36929-4 0 9996 2 43927 86.4011 24.4720 0002150 81.8129 278.3311 14.34218230378363 IRIDIUM 175 1 43928U 19002G 26094.03874563 .00000528 00000+0 14998-3 0 9993 2 43928 86.4517 321.5360 0005278 100.2889 259.8908 14.43583070388284 IRIDIUM 171 1 43929U 19002H 26094.27646605 .00000432 00000+0 14732-3 0 9994 2 43929 86.4025 24.7490 0002344 88.5531 271.5933 14.34217621378361 IRIDIUM 170 1 43930U 19002J 26094.28428754 .00001731 00000+0 27055-3 0 9995 2 43930 86.6134 24.4295 0002384 81.2755 278.8733 14.72253982388381 IRIDIUM 167 1 43931U 19002K 26094.27012599 .00000474 00000+0 16211-3 0 9996 2 43931 86.4014 24.4753 0002431 92.4653 267.6821 14.34216448378365 IRIDIUM 181 1 56726U 23068S 26094.06266190 .00000267 00000+0 73300-4 0 9997 2 56726 86.4448 87.7801 0002476 82.5270 277.6213 14.43312226151740 IRIDIUM 177 1 56727U 23068T 26094.23124461 .00002501 00000+0 32556-3 0 9991 2 56727 86.2019 3.9076 0002235 88.7614 271.3863 14.80247141155425 IRIDIUM 174 1 56728U 23068U 26094.27192530 .00001736 00000+0 27138-3 0 9997 2 56728 86.6143 24.5743 0002181 81.5971 278.5493 14.72242690155147 IRIDIUM 178 1 56729U 23068V 26093.94991844 .00001053 00000+0 13514-3 0 9991 2 56729 86.6528 56.3715 0002826 84.2280 275.9264 14.80228592155383 IRIDIUM 179 1 56730U 23068W 26093.94454588 .00002620 00000+0 34126-3 0 9995 2 56730 86.6751 65.1373 0002808 95.7971 264.3571 14.80237105155388